When you browse on this site, cookies collect data to enhance your experience and personalize the content and advertising you see.
Visit our Privacy Policy to learn more. By continuing to use the site, you agree to this use of cookies and data.
  • In Österreich
  • Länderverzeichnis
  • Für 7 Tage
  • Wassertemperatur
  • Wetterkarte
  • News
  • Widgets
  • user-avatar
    Anmelden

    Stündliche Wetter Jewłach

    Heute, 16 Dezember, Montag

    Zeit Temperatur Niederschläge Wind Luftdruck Luftfeuchtigkeit
    00:00 +8°C° 0 mm 0 m/S 762 mmHg 68%
    01:00 +7°C° 0 mm 0 m/S 762 mmHg 70%
    02:00 +7°C° 0 mm 0 m/S 762 mmHg 71%
    03:00 +7°C° 0 mm 0 m/S 762 mmHg 72%
    04:00 +7°C° 0 mm 0 m/S 763 mmHg 72%
    05:00 +7°C° 0 mm 0 m/S 763 mmHg 73%
    06:00 +6°C° 0 mm 0 m/S 763 mmHg 73%
    07:00 +7°C° 0 mm 0 m/S 763 mmHg 69%
    08:00 +8°C° 0 mm 0 m/S 764 mmHg 65%
    09:00 +9°C° 0 mm 0 m/S 764 mmHg 60%
    10:00 +11°C° 0 mm 1 m/S 764 mmHg 57%
    11:00 +12°C° 0 mm 1 m/S 764 mmHg 53%
    12:00 +13°C° 0 mm 1 m/S 764 mmHg 50%
    13:00 +14°C° 0 mm 1 m/S 764 mmHg 49%
    14:00 +15°C° 0 mm 1 m/S 764 mmHg 48%
    15:00 +15°C° 0 mm 1 m/S 764 mmHg 47%
    16:00 +14°C° 0 mm 1 m/S 764 mmHg 52%
    17:00 +13°C° 0 mm 1 m/S 765 mmHg 56%
    18:00 +12°C° 0 mm 1 m/S 765 mmHg 60%
    19:00 +12°C° 0 mm 1 m/S 766 mmHg 60%
    20:00 +12°C° 0 mm 2 m/S 766 mmHg 60%
    21:00 +12°C° 0 mm 2 m/S 767 mmHg 60%
    22:00 +10°C° 0.1 mm 2 m/S 767 mmHg 64%
    23:00 +10°C° 0.1 mm 2 m/S 768 mmHg 67%

    Morgen, 17 Dezember, Dienstag

    Zeit Temperatur Niederschläge Wind Luftdruck Luftfeuchtigkeit
    00:00 +10°C° 0.1 mm 2 m/S 768 mmHg 70%
    01:00 +10°C° 0 mm 2 m/S 768 mmHg 72%
    02:00 +10°C° 0 mm 1 m/S 768 mmHg 74%
    03:00 +10°C° 0 mm 1 m/S 768 mmHg 76%
    04:00 +10°C° 0 mm 1 m/S 768 mmHg 78%
    05:00 +9°C° 0 mm 1 m/S 768 mmHg 79%
    06:00 +8°C° 0 mm 2 m/S 768 mmHg 81%
    07:00 +8°C° 0 mm 2 m/S 768 mmHg 77%
    08:00 +9°C° 0 mm 2 m/S 769 mmHg 73%
    09:00 +10°C° 0 mm 2 m/S 769 mmHg 69%
    10:00 +12°C° 0 mm 2 m/S 769 mmHg 65%
    11:00 +12°C° 0 mm 1 m/S 769 mmHg 61%
    12:00 +13°C° 0 mm 1 m/S 768 mmHg 57%
    13:00 +14°C° 0 mm 1 m/S 768 mmHg 57%
    14:00 +14°C° 0 mm 1 m/S 768 mmHg 56%
    15:00 +14°C° 0 mm 1 m/S 768 mmHg 56%
    16:00 +13°C° 0 mm 1 m/S 769 mmHg 61%
    17:00 +12°C° 0 mm 1 m/S 769 mmHg 66%
    18:00 +11°C° 0 mm 1 m/S 769 mmHg 71%
    19:00 +11°C° 0 mm 1 m/S 770 mmHg 74%
    20:00 +10°C° 0 mm 1 m/S 770 mmHg 76%
    21:00 +10°C° 0 mm 1 m/S 770 mmHg 79%
    22:00 +9°C° 0 mm 1 m/S 770 mmHg 81%
    23:00 +9°C° 0 mm 1 m/S 771 mmHg 83%

    übermorgen, 18 Dezember, Mittwoch

    Zeit Temperatur Niederschläge Wind Luftdruck Luftfeuchtigkeit
    00:00 +9°C° 0 mm 1 m/S 771 mmHg 84%
    01:00 +7°C° 0 mm 0 m/S 771 mmHg 85%
    02:00 +7°C° 0 mm 0 m/S 771 mmHg 86%
    03:00 +7°C° 0 mm 0 m/S 770 mmHg 87%
    04:00 +7°C° 0 mm 0 m/S 770 mmHg 86%
    05:00 +8°C° 0 mm 1 m/S 771 mmHg 86%
    06:00 +8°C° 0 mm 1 m/S 771 mmHg 86%
    07:00 +7°C° 0 mm 2 m/S 770 mmHg 82%
    08:00 +8°C° 0 mm 2 m/S 770 mmHg 78%
    09:00 +9°C° 0 mm 2 m/S 770 mmHg 74%
    10:00 +10°C° 0 mm 3 m/S 770 mmHg 67%
    11:00 +12°C° 0 mm 3 m/S 769 mmHg 61%
    12:00 +13°C° 0 mm 4 m/S 769 mmHg 55%
    13:00 +13°C° 0 mm 4 m/S 768 mmHg 53%
    14:00 +14°C° 0 mm 3 m/S 768 mmHg 50%
    15:00 +14°C° 0 mm 3 m/S 768 mmHg 48%
    16:00 +13°C° 0 mm 3 m/S 768 mmHg 52%
    17:00 +13°C° 0 mm 2 m/S 769 mmHg 55%
    18:00 +10°C° 0 mm 2 m/S 769 mmHg 58%
    19:00 +11°C° 0 mm 1 m/S 769 mmHg 60%
    20:00 +11°C° 0 mm 1 m/S 769 mmHg 61%
    21:00 +10°C° 0 mm 1 m/S 769 mmHg 62%
    22:00 +10°C° 0 mm 1 m/S 769 mmHg 62%
    23:00 +10°C° 0 mm 1 m/S 769 mmHg 62%

    19 Dezember, Donnerstag

    Zeit Temperatur Niederschläge Wind Luftdruck Luftfeuchtigkeit
    00:00 +9°C° 0 mm 1 m/S 769 mmHg 62%
    01:00 +9°C° 0 mm 1 m/S 769 mmHg 62%
    02:00 +9°C° 0 mm 1 m/S 769 mmHg 61%
    03:00 +8°C° 0 mm 2 m/S 768 mmHg 60%
    04:00 +7°C° 0 mm 2 m/S 768 mmHg 59%
    05:00 +7°C° 0 mm 2 m/S 768 mmHg 59%
    06:00 +7°C° 0 mm 2 m/S 768 mmHg 58%
    07:00 +8°C° 0 mm 2 m/S 768 mmHg 55%
    08:00 +9°C° 0 mm 2 m/S 768 mmHg 51%
    09:00 +9°C° 0 mm 2 m/S 768 mmHg 47%
    10:00 +12°C° 0 mm 2 m/S 768 mmHg 42%
    11:00 +13°C° 0 mm 2 m/S 768 mmHg 38%
    12:00 +15°C° 0 mm 2 m/S 767 mmHg 33%
    13:00 +15°C° 0 mm 2 m/S 767 mmHg 32%
    14:00 +15°C° 0 mm 2 m/S 767 mmHg 32%
    15:00 +16°C° 0 mm 2 m/S 766 mmHg 31%
    16:00 +14°C° 0 mm 1 m/S 767 mmHg 35%
    17:00 +13°C° 0 mm 1 m/S 767 mmHg 39%
    18:00 +10°C° 0 mm 0 m/S 767 mmHg 43%
    19:00 +10°C° 0 mm 0 m/S 767 mmHg 43%
    20:00 +10°C° 0 mm 0 m/S 766 mmHg 44%
    21:00 +10°C° 0 mm 0 m/S 766 mmHg 45%
    22:00 +10°C° 0 mm 1 m/S 766 mmHg 45%
    23:00 +10°C° 0 mm 1 m/S 766 mmHg 46%

    20 Dezember, Freitag

    Zeit Temperatur Niederschläge Wind Luftdruck Luftfeuchtigkeit
    00:00 +10°C° 0 mm 1 m/S 766 mmHg 46%
    01:00 +10°C° 0 mm 1 m/S 766 mmHg 46%
    02:00 +9°C° 0 mm 2 m/S 766 mmHg 45%
    03:00 +9°C° 0 mm 2 m/S 765 mmHg 44%
    04:00 +8°C° 0 mm 2 m/S 765 mmHg 44%
    05:00 +8°C° 0 mm 2 m/S 765 mmHg 44%
    06:00 +8°C° 0 mm 2 m/S 765 mmHg 44%
    07:00 +9°C° 0 mm 2 m/S 764 mmHg 41%
    08:00 +10°C° 0 mm 2 m/S 764 mmHg 39%
    09:00 +12°C° 0 mm 2 m/S 764 mmHg 37%
    10:00 +12°C° 0 mm 3 m/S 764 mmHg 33%
    11:00 +14°C° 0 mm 3 m/S 763 mmHg 29%
    12:00 +17°C° 0 mm 3 m/S 763 mmHg 26%
    13:00 +17°C° 0 mm 3 m/S 762 mmHg 26%
    14:00 +17°C° 0 mm 3 m/S 762 mmHg 26%
    15:00 +18°C° 0 mm 2 m/S 761 mmHg 25%
    16:00 +16°C° 0 mm 2 m/S 761 mmHg 29%
    17:00 +14°C° 0 mm 1 m/S 761 mmHg 32%
    18:00 +12°C° 0 mm 0 m/S 761 mmHg 35%
    19:00 +12°C° 0 mm 1 m/S 761 mmHg 36%
    20:00 +12°C° 0 mm 1 m/S 761 mmHg 37%
    21:00 +12°C° 0 mm 1 m/S 761 mmHg 38%
    22:00 +11°C° 0 mm 1 m/S 761 mmHg 40%
    23:00 +10°C° 0 mm 1 m/S 761 mmHg 41%

    21 Dezember, Samstag

    Zeit Temperatur Niederschläge Wind Luftdruck Luftfeuchtigkeit
    00:00 +9°C° 0 mm 0 m/S 761 mmHg 43%
    01:00 +9°C° 0 mm 0 m/S 761 mmHg 43%
    02:00 +8°C° 0 mm 0 m/S 761 mmHg 44%
    03:00 +8°C° 0 mm 0 m/S 760 mmHg 45%
    04:00 +9°C° 0 mm 1 m/S 760 mmHg 45%
    05:00 +9°C° 0 mm 1 m/S 760 mmHg 44%
    06:00 +8°C° 0 mm 2 m/S 760 mmHg 44%
    07:00 +9°C° 0 mm 2 m/S 761 mmHg 42%
    08:00 +10°C° 0 mm 2 m/S 761 mmHg 39%
    09:00 +12°C° 0 mm 2 m/S 761 mmHg 37%
    10:00 +13°C° 0 mm 2 m/S 761 mmHg 34%
    11:00 +14°C° 0 mm 3 m/S 761 mmHg 31%
    12:00 +16°C° 0 mm 3 m/S 760 mmHg 29%
    13:00 +16°C° 0 mm 2 m/S 760 mmHg 29%
    14:00 +16°C° 0 mm 2 m/S 760 mmHg 30%
    15:00 +16°C° 0 mm 1 m/S 760 mmHg 31%
    16:00 +15°C° 0 mm 2 m/S 761 mmHg 34%
    17:00 +13°C° 0 mm 2 m/S 761 mmHg 36%
    18:00 +11°C° 0 mm 3 m/S 762 mmHg 39%
    19:00 +10°C° 0 mm 3 m/S 762 mmHg 49%
    20:00 +9°C° 0 mm 3 m/S 762 mmHg 59%
    21:00 +7°C° 0 mm 4 m/S 762 mmHg 69%
    22:00 +8°C° 0 mm 3 m/S 763 mmHg 75%
    23:00 +8°C° 0 mm 3 m/S 763 mmHg 80%
    Mehr zeigen